Content
SEND FEEDBACK

Daily
Averages
Monthly
Summary
Czech Republic

PRAGUE, CZECH REPUBLIC


Home > Europe > Czech Republic
Elevation: 1184 feet     Latitude: 50 06N     Longitude: 014 15E

WEATHER
 
SELECT A DAY
Number of Records: 321,146;   Date Range: 7/1/96 - 9/15/14
 
SHARE

PRINT THIS DATA

[ ← Previous Day ]
WEATHER ALMANAC - OCTOBER 25, 2013
[ Next Day → ]
[ °C ]   °F
Weather ElementAverageHighLow
Temperature49.2 °F57.2 °F (2:30 pm)42.8 °F (7:18 am)
Dewpoint47.9 °F53.6 °F (1:30 pm)41 °F (7:30 am)
Humidity95.5 %100 % (5:16 am)82 % (2:30 pm)
Barometer30.11 in30.16 in (2:00 am)30.06 in (5:30 pm)
Wind Speed3 mph6.9 mph (3:30 pm)
Weather ElementAverage
Visibility2.2 mi
Wind DirectionE (85.9 °)

Weather ElementTotal
Precipitation---
Heating Degree Days15 (Base 65)
Averaged from 85 records on October 25, 2013
WEATHER CONDITIONS BREAKOUT
WIND DIRECTION BREAKOUT
WEATHER BY HOUR - OCTOBER 25, 2013
[ °C ]   °F
Local TimeTemperatureDewpointHumidityBarometerVisibilityWind DirectionWind SpeedGust SpeedPrecipitationEventsConditions
12:30 AM50.0 °F48.2 °F94 %30.15 in6.2 miWSW (250°)3.5 mphPartly Cloudy
1:00 AM50.0 °F48.2 °F94 %30.15 inEast (90°)2.3 mphClear
1:30 AM50.0 °F48.2 °F94 %30.12 in6.2 miESE (120°)2.3 mphPartly Cloudy
2:00 AM51.0 °F49.0 °F91 %30.16 in16.0 miSE (140°)4.5 mphMostly Cloudy
2:00 AM50.0 °F48.2 °F94 %30.12 in6.2 miSSE (160°)2.3 mphMostly Cloudy
2:30 AM51.8 °F48.2 °F88 %30.12 in6.2 miVariable2.3 mphPartly Cloudy
3:00 AM50.0 °F46.4 °F87 %30.12 in6.2 miSE (130°)3.5 mphPartly Cloudy
3:30 AM50.0 °F48.2 °F94 %30.12 in6.2 miESE (110°)2.3 mphPartly Cloudy
4:00 AM50.0 °F48.2 °F94 %30.12 in6.2 miSE (140°)2.3 mphPartly Cloudy
4:30 AM46.4 °F44.6 °F93 %30.12 in6.2 miNorth (10°)2.3 mphFogShallow Fog
5:00 AM46.4 °F44.6 °F93 %30.12 in5.0 miVariable1.2 mphFogFog
5:16 AM44.6 °F44.6 °F100 %30.12 in3.7 miCalmFogShallow Fog
5:17 AM44.6 °F44.6 °F100 %30.12 in2.8 miCalmFogFog
5:21 AM44.6 °F44.6 °F100 %30.12 in3.7 miCalmFogFog
5:30 AM44.6 °F42.8 °F93 %30.12 in2.8 miNW (310°)1.2 mphFogShallow Fog
5:39 AM44.6 °F44.6 °F100 %30.12 inCalmFogShallow Fog
6:00 AM44.6 °F42.8 °F93 %30.12 in0.7 miVariable1.2 mphScattered Clouds
6:30 AM46.4 °F44.6 °F93 %30.12 in0.9 miESE (110°)3.5 mphFogFog
7:00 AM46.4 °F46.4 °F100 %30.12 in0.6 miESE (110°)3.5 mphFogFog
7:03 AM46.4 °F44.6 °F93 %30.12 in0.6 miESE (120°)2.3 mphFogFog
7:10 AM44.6 °F42.8 °F93 %30.12 in0.5 miESE (110°)2.3 mphFogFog
7:18 AM42.8 °F42.8 °F100 %30.12 in0.4 miVariable2.3 mphFogFog
7:30 AM42.8 °F41.0 °F93 %30.12 in0.3 miVariable2.3 mphFogFog
7:31 AM42.8 °F41.0 °F93 %30.12 in0.3 miNNE (20°)3.5 mphFogFog
7:39 AM42.8 °F42.8 °F100 %30.12 in0.3 miNNE (20°)3.5 mphFogFog
7:47 AM44.6 °F42.8 °F93 %30.12 in0.2 miNNE (30°)4.6 mphFogFog
8:00 AM44.6 °F44.6 °F100 %30.12 in0.1 miNNE (30°)3.5 mphFogFog
8:00 AM45.0 °F44.0 °F96 %30.16 in0.0 miEast (80°)2.2 mphFogHeavy Fog
8:09 AM44.6 °F44.6 °F100 %30.12 in0.1 miNNE (20°)2.3 mphFogFog
8:30 AM44.6 °F42.8 °F93 %30.12 in0.1 miESE (110°)3.5 mphFogFog
8:48 AM44.6 °F44.6 °F100 %30.12 in0.2 miEast (100°)3.5 mphFogFog
9:00 AM44.6 °F44.6 °F100 %30.12 in0.1 miESE (120°)3.5 mphFogFog
9:21 AM46.4 °F46.4 °F100 %30.12 in0.2 miVariable2.3 mphFogFog
9:30 AM46.4 °F46.4 °F100 %30.12 in0.2 miVariable2.3 mphFogFog
9:37 AM48.2 °F46.4 °F93 %30.12 in0.2 miESE (120°)4.6 mphFogFog
9:49 AM48.2 °F46.4 °F93 %30.12 in0.2 miESE (110°)3.5 mphFogFog
9:55 AM48.2 °F46.4 °F93 %30.12 in0.3 miSE (130°)3.5 mphFogFog
10:00 AM48.2 °F48.2 °F100 %30.12 in0.3 miSE (130°)3.5 mphFogFog
10:07 AM48.2 °F48.2 °F100 %30.12 in1.1 miESE (120°)3.5 mphOvercast
10:12 AM48.2 °F48.2 °F100 %30.12 in1.9 miSE (130°)3.5 mphMostly Cloudy
10:16 AM48.2 °F48.2 °F100 %30.12 in2.8 miVariable2.3 mphOvercast
10:30 AM50.0 °F48.2 °F94 %30.12 in3.7 miVariable2.3 mphMostly Cloudy
11:00 AM51.8 °F50.0 °F94 %30.12 in3.1 miVariable2.3 mphOvercast
11:12 AM51.8 °F50.0 °F94 %30.12 in2.2 miENE (60°)3.5 mphOvercast
11:30 AM51.8 °F50.0 °F94 %30.12 in2.2 miEast (80°)4.6 mphOvercast
11:41 AM51.8 °F51.8 °F100 %30.12 in3.1 miENE (70°)5.8 mphOvercast
11:43 AM51.8 °F51.8 °F100 %30.12 in2.5 miENE (70°)5.8 mphOvercast
12:00 PM51.8 °F51.8 °F100 %30.12 in2.5 miEast (80°)4.6 mphOvercast
12:05 PM51.8 °F51.8 °F100 %30.12 in2.8 miEast (80°)4.6 mphOvercast
12:31 PM51.8 °F51.8 °F100 %30.12 in2.5 miNE (50°)4.6 mphOvercast
1:00 PM51.8 °F51.8 °F100 %30.12 in3.1 miEast (80°)4.6 mphOvercast
1:30 PM53.6 °F53.6 °F100 %30.12 in3.7 miNE (50°)4.6 mphOvercast
2:00 PM55.4 °F51.8 °F88 %30.09 in4.3 miENE (60°)5.8 mphOvercast
2:00 PM55.0 °F52.0 °F86 %30.12 in4.0 miENE (60°)4.5 mphMist
2:30 PM57.2 °F51.8 °F82 %30.09 in5.0 miVariable2.3 mphOvercast
3:00 PM57.2 °F51.8 °F82 %30.09 in5.6 miNorth (10°)4.6 mphOvercast
3:30 PM55.4 °F51.8 °F88 %30.09 in4.3 miNorth (10°)6.9 mphOvercast
4:00 PM55.4 °F51.8 °F88 %30.09 in3.7 miNorth (350°)5.8 mphOvercast
4:30 PM55.4 °F51.8 °F88 %30.09 in3.7 miNorth (10°)4.6 mphMostly Cloudy
5:00 PM53.6 °F51.8 °F94 %30.09 in3.1 miNNW (340°)5.8 mphMostly Cloudy
5:30 PM51.8 °F50.0 °F94 %30.06 inENE (70°)4.6 mphScattered Clouds
6:00 PM51.8 °F50.0 °F94 %30.09 in2.2 miNorth (360°)3.5 mphMist
6:30 PM51.8 °F50.0 °F94 %30.09 in2.2 miNNW (330°)3.5 mphScattered Clouds
6:35 PM51.8 °F50.0 °F94 %30.09 in1.7 miNNW (340°)2.3 mphFogScattered Clouds
6:51 PM51.8 °F50.0 °F94 %30.09 in1.7 miNorth (10°)2.3 mphFogScattered Clouds
7:00 PM50.0 °F50.0 °F100 %30.09 in0.6 miNorth (10°)2.3 mphFogScattered Clouds
7:10 PM50.0 °F50.0 °F100 %30.09 in0.2 miCalmScattered Clouds
7:21 PM50.0 °F50.0 °F100 %30.09 in0.4 miVariable1.2 mphScattered Clouds
7:30 PM51.8 °F50.0 °F94 %30.09 in0.5 miVariable2.3 mphScattered Clouds
7:32 PM51.8 °F50.0 °F94 %30.09 in1.7 miEast (80°)3.5 mphFogScattered Clouds
7:47 PM50.0 °F50.0 °F100 %30.09 in0.6 miVariable2.3 mphFogFog
8:00 PM49.0 °F48.0 °F97 %30.11 in1.0 miEast (80°)4.5 mphFogPartial Fog
8:00 PM50.0 °F50.0 °F100 %30.09 in0.6 miNE (50°)2.3 mphFogFog
8:15 PM48.2 °F48.2 °F100 %30.06 in0.4 miVariable1.2 mphFogFog
8:30 PM50.0 °F48.2 °F94 %30.06 in0.4 miVariable2.3 mphFogFog
9:00 PM48.2 °F48.2 °F100 %30.06 in0.6 miVariable1.2 mphFogFog
9:22 PM48.2 °F48.2 °F100 %30.06 in0.5 miNW (320°)3.5 mphFogFog
9:30 PM48.2 °F48.2 °F100 %30.06 in0.4 miNW (310°)3.5 mphFogFog
9:39 PM48.2 °F48.2 °F100 %30.06 in0.4 miNNW (340°)3.5 mphFogFog
9:49 PM50.0 °F48.2 °F94 %30.06 in0.3 miNorth (360°)3.5 mphFogFog
10:00 PM50.0 °F48.2 °F94 %30.06 in0.2 miVariable2.3 mphFogFog
10:30 PM50.0 °F48.2 °F94 %30.06 in0.2 miVariable2.3 mphFogFog
10:42 PM50.0 °F48.2 °F94 %30.06 in0.2 miCalmFogFog
11:00 PM50.0 °F48.2 °F94 %30.06 in0.2 miVariable1.2 mphFogFog
11:30 PM50.0 °F50.0 °F100 %30.06 in0.2 miVariable1.2 mphFogFog
Hourly data recorded from LKPR, located miles away from Prague, Czech Republic







STORIES FROM OUR PARTNERS